Sarasota, FL

8:39 AM EDT on April 23, 2018 (GMT -0400)
Sarasota-bradenton

Weather History for KSRQ - January, 2015

Change the Weather History Date:

Wednesday, January 7, 2015

  Actual Average Record
Temperature  
Mean Temperature 59 °F 61 °F  
Max Temperature 68 °F 71 °F 85 °F (1998)
Min Temperature 50 °F 52 °F 30 °F (2010)
Degree Days  
Heating Degree Days 6 6  
Month to date heating degree days 6 40  
Since 1 July heating degree days 190 195  
Cooling Degree Days 0 2  
Month to date cooling degree days 33 14  
Year to date cooling degree days 33 14  
Growing Degree Days 8 (Base 50)    
Moisture  
Dew Point 46 °F    
Average Humidity 67    
Maximum Humidity 100    
Minimum Humidity 34    
Precipitation  
Precipitation 0.00 in 0.13 in 1.32 in (1964)
Month to date precipitation 0.00 0.87  
Year to date precipitation 0.00 0.87  
Sea Level Pressure  
Sea Level Pressure 30.20 in    
Wind  
Wind Speed 8 mph (North)    
Max Wind Speed 17 mph    
Max Gust Speed 26 mph    
Visibility 10 miles    
Events      
T = Trace of Precipitation, MM = Missing Value Source: NWS Daily Summary

Daily Weather History Graph

Daily Weather History Graph

Search for Another Location

Airport or City:

Astronomy

Jan. 07, 2015 Rise Set
Actual Time 7:21 AM EST 5:51 PM EST
Civil Twilight 6:56 AM EST 6:16 PM EST
Nautical Twilight 6:27 AM EST 6:45 PM EST
Astronomical Twilight 5:58 AM EST 7:14 PM EST
Moon 8:19 PM EST (1/7) 8:47 AM EST (1/7)
Length of Visible Light 11h 20m
Length of Day
10h 30m
Waning Gibbous, 94% of the Moon is Illuminated
Jan 7
Waning Gibbous
Jan 13
Last Quarter
Jan 20
New
Jan 26
First Quarter
Feb 3
Full

Hourly Weather History & Observations

Time (EST) Temp. Dew Point Humidity Pressure Visibility Wind Dir Wind Speed Gust Speed Precip Events Conditions
12:53 AM 55.9 °F 54.0 °F 93% 30.21 in 10.0 mi Calm Calm - N/A   Clear
1:53 AM 55.0 °F 54.0 °F 96% 30.21 in 10.0 mi Calm Calm - N/A   Clear
2:53 AM 55.0 °F 54.0 °F 96% 30.21 in 10.0 mi Calm Calm - N/A   Clear
3:53 AM 54.0 °F 53.1 °F 97% 30.21 in 10.0 mi ENE 4.6 mph - N/A   Clear
4:53 AM 54.0 °F 53.1 °F 97% 30.21 in 10.0 mi NNE 3.5 mph - N/A   Clear
5:53 AM 53.1 °F 52.0 °F 96% 30.22 in 10.0 mi NE 6.9 mph - N/A   Clear
6:53 AM 51.1 °F 48.0 °F 89% 30.23 in 10.0 mi NE 4.6 mph - N/A   Clear
7:53 AM 50.0 °F 46.0 °F 86% 30.24 in 10.0 mi ENE 3.5 mph - N/A   Clear
8:53 AM 55.9 °F 46.0 °F 69% 30.25 in 10.0 mi NNE 6.9 mph - N/A   Clear
9:53 AM 60.1 °F 44.1 °F 55% 30.24 in 10.0 mi North 8.1 mph - N/A   Clear
10:53 AM 63.0 °F 39.0 °F 41% 30.22 in 10.0 mi North 8.1 mph - N/A   Clear
11:53 AM 64.9 °F 36.0 °F 34% 30.20 in 10.0 mi North 6.9 mph - N/A   Clear
12:53 PM 64.9 °F 36.0 °F 34% 30.17 in 10.0 mi North 11.5 mph - N/A   Clear
1:53 PM 66.9 °F 39.9 °F 37% 30.15 in 10.0 mi NNW 10.4 mph - N/A   Clear
2:53 PM 66.9 °F 44.1 °F 44% 30.14 in 10.0 mi NW 13.8 mph - N/A   Clear
3:53 PM 64.9 °F 46.0 °F 50% 30.15 in 10.0 mi NNW 15.0 mph - N/A   Clear
4:53 PM 64.9 °F 45.0 °F 48% 30.16 in 10.0 mi NNW 9.2 mph - N/A   Clear
5:53 PM 59.0 °F 46.9 °F 64% 30.18 in 10.0 mi NNW 15.0 mph - N/A   Clear
6:53 PM 57.9 °F 46.0 °F 65% 30.20 in 10.0 mi NNW 8.1 mph - N/A   Clear
7:53 PM 57.9 °F 46.0 °F 65% 30.21 in 10.0 mi NNW 9.2 mph - N/A   Clear
8:53 PM 57.0 °F 46.9 °F 69% 30.21 in 10.0 mi NNW 5.8 mph - N/A   Clear
9:53 PM 57.9 °F 48.0 °F 70% 30.22 in 10.0 mi North 6.9 mph - N/A   Clear
10:53 PM 59.0 °F 46.0 °F 62% 30.23 in 10.0 mi North 9.2 mph 18.4 mph N/A   Partly Cloudy
11:53 PM 59.0 °F 44.1 °F 58% 30.24 in 10.0 mi North 17.3 mph - N/A   Clear